User: anonymous   Login
Location: Zagreb
(45.8000°N, 16.0000°E)
Time: 17:05:08
(UTC+02:00)
Language:

Vanguard 2 Rocket - Orbit

View from above orbital plane
View from above orbital plane
View from above satellite
View from above satellite

Ground track
Ground track

The orbit data is extracted from the following two-line orbital elements,

1 00012U 59001B   22221.44187552  .00000108  00000-0  41309-4 0  9993
2 00012  32.9087 130.8390 1665650 233.4456 110.1176 11.44690528369694
Epoch (UTC): 09 August 2022 10:36:18
Eccentricity: 0.1665650
inclination: 32.9087°
perigee height: 553 km
apogee height: 3323 km
right ascension of ascending node: 130.8390°
argument of perigee: 233.4456°
revolutions per day: 11.44690528
mean anomaly at epoch: 110.1176°
orbit number at epoch: 36969

The dashed part of the orbit path shows where the satellite is in the earth's shadow,  

DLR